Date,TemperatureHighF,TemperatureAvgF,TemperatureLowF,DewpointHighF,DewpointAvgF,DewpointLowF,HumidityHigh,HumidityAvg,HumidityLow,PressureMaxIn,PressureMinIn,WindSpeedMaxMPH,WindSpeedAvgMPH,GustSpeedMaxMPH,PrecipitationSumIn
2013-10-1,74,66,61,64,62,59,94,86,69,30.05,29.97,7,0,7,0.00
2013-10-2,78,69,64,70,65,61,94,87,71,30.09,30.00,6,0,6,0.00
2013-10-3,79,72,67,69,66,64,93,82,65,30.03,29.93,10,0,10,0.00
2013-10-4,81,73,68,71,68,65,92,83,67,30.02,29.96,8,0,8,0.00
2013-10-5,76,71,66,71,68,64,95,91,84,30.00,29.85,9,0,11,1.04
2013-10-6,66,60,49,64,58,41,95,91,70,29.87,29.72,15,1,17,1.25
2013-10-7,60,51,46,50,46,42,93,82,63,30.16,29.81,15,2,15,0.02
2013-10-8,70,57,46,53,47,44,93,73,44,30.27,30.16,6,0,7,0.00
2013-10-9,59,48,45,51,44,42,90,86,75,30.25,30.16,4,0,4,0.00
2013-10-10,72,58,46,53,47,43,91,70,39,30.19,30.07,6,0,6,0.00
2013-10-11,76,61,47,55,50,44,92,71,40,30.11,30.00,7,0,7,0.00
2013-10-12,77,63,50,60,54,48,92,75,46,30.10,30.01,6,0,6,0.00
2013-10-13,68,62,51,61,49,40,87,65,36,30.33,30.10,11,2,11,0.00
2013-10-14,68,55,43,52,44,39,90,71,44,30.36,30.19,8,0,8,0.00
2013-10-15,68,59,50,62,56,46,92,87,75,30.20,29.90,12,0,12,0.03
2013-10-16,64,56,45,62,50,42,92,79,57,29.97,29.85,15,3,15,0.00
2013-10-17,52,47,42,50,43,39,94,88,79,29.96,29.88,12,1,14,0.08
2013-10-18,64,52,44,50,44,40,89,77,48,29.99,29.90,13,1,13,0.00
2013-10-19,51,46,41,43,40,36,93,80,59,29.97,29.86,16,2,16,0.19
2013-10-20,62,51,42,46,41,36,83,69,50,29.99,29.91,15,1,15,0.00
2013-10-21,60,51,39,49,43,30,89,75,65,29.99,29.87,15,2,15,0.00
2013-10-22,50,40,33,39,32,27,92,73,42,30.04,29.87,12,1,12,0.01
2013-10-23,46,38,33,39,33,27,95,82,51,30.05,29.83,18,3,18,0.20
2013-10-24,43,39,34,35,32,27,87,75,59,30.29,30.04,13,3,16,0.00
2013-10-25,46,37,29,32,27,25,88,69,46,30.45,30.26,14,1,15,0.00
2013-10-26,53,43,35,41,33,27,78,68,58,30.25,29.92,12,1,13,0.00
2013-10-27,54,43,35,38,34,31,86,71,49,30.12,30.04,10,0,10,0.00
2013-10-28,59,45,32,40,34,29,89,68,38,30.32,30.09,5,0,6,0.00
2013-10-29,58,48,38,46,40,34,91,76,57,30.37,30.19,5,0,6,0.00
2013-10-30,64,57,50,62,55,46,95,91,80,30.19,29.93,8,0,11,0.05
2013-10-31,64,61,56,62,59,54,95,92,87,29.94,29.24,18,2,24,1.42